User: anonymous   Login
Location: Unspecified
(0.0000°N, 0.0000°E)
Time: 17:48:11
(UTC+00:00)
Language:

COSMOS 2482 - Orbit

View from above orbital plane
View from above orbital plane
View from above satellite
View from above satellite

Ground track
Ground track

The orbit data is extracted from the following two-line orbital elements,

1 39057U 13001A   18049.77531103  .00000010  00000-0  21317-5 0  9998
2 39057  82.5020 311.7102 0026477 174.3565 185.7824 12.42889834231072
Epoch (UTC): 18 February 2018 18:36:26
Eccentricity: 0.0026477
inclination: 82.5020°
perigee height: 1473 km
apogee height: 1515 km
right ascension of ascending node: 311.7102°
argument of perigee: 174.3565°
revolutions per day: 12.42889834
mean anomaly at epoch: 185.7824°
orbit number at epoch: 23107

The dashed part of the orbit path shows where the satellite is in the earth's shadow,  

DLR